Tracking 19800 objects as of 24-Jul-2019
HD Live streaming from Space Station
objects crossing your sky now

FENGYUN 1C DEB

Track FENGYUN 1C DEB now!
10-day predictions


NORAD ID: 32319
Int'l Code: 1999-025CXL
Perigee: 538.1 km
Apogee: 707.9 km
Inclination: 99.1 °
Period: 97.0 minutes
Semi major axis: 6993 km
RCS: 0.0123 m2 (small)
Launch date: May 10, 1999
Source: People's Republic of China (PRC)
Launch site: Taiyaun Space Center, China (TSC)

Note: This is SATELLITE DEBRIS
aabbcc
Your satellite tracking list
Your tracking list is empty




NASA's NSSDC Master Catalog

Two Line Element Set (TLE):
1 32319U 99025CXL 19204.34175751  .00000658  00000-0  77388-4 0  9998
2 32319  99.1493  54.0087 0121404   0.9542 359.1877 14.84275587645647
Source of the keplerian elements: AFSPC